This demonstration page uses our WeatherBlox Daily Observations layout. Learn more.

Left ArrowRight Arrow

Hourly Observations for June 30, 2022

Temp ( °F °C ) Dew Point ( °F °C ) Humidity (%) Winds ( mph kmh ) Pressure ( in mb ) Visibility ( mi km ) Precip ( " mm )
12:53 am 00:53 Clear 79 26.1 60 15.6 52 52 SE 8 13 29.99 1016 10 16 0.00 0.00
1:53 am 01:53 Clear 78 25.6 60 15.6 54 54 SE 10 17 29.99 1016 10 16 0.00 0.00
2:53 am 02:53 Clear 77 25 59 15 54 54 SE 8 13 29.98 1015 10 16 0.00 0.00
3:53 am 03:53 Clear 76 24.4 59 15 56 56 SE 7 11 29.97 1015 10 16 0.00 0.00
4:53 am 04:53 Clear 74 23.3 59 15 60 60 SE 8 13 29.96 1015 10 16 0.00 0.00
5:53 am 05:53 Clear 73 22.8 60 15.6 64 64 SE 10 17 29.96 1015 10 16 0.00 0.00
6:53 am 06:53 Sunny 72 22.2 60 15.6 66 66 SE 8 13 29.96 1015 10 16 0.00 0.00
7:53 am 07:53 Sunny 74 23.3 60 15.6 62 62 SE 7 11 29.96 1015 10 16 0.00 0.00
8:53 am 08:53 Sunny 78 25.6 60 15.6 54 54 SE 10 17 29.97 1015 10 16 0.00 0.00
9:53 am 09:53 Sunny 81 27.2 60 15.6 49 49 SSE 8 13 29.97 1015 10 16 0.00 0.00
10:53 am 10:53 Sunny 85 29.4 58 14.4 40 40 SSE 9 15 29.95 1014 10 16 0.00 0.00
11:53 am 11:53 Sunny 89 31.7 56 13.3 33 33 SSE 9 15 29.93 1014 10 16 0.00 0.00
12:53 pm 12:53 Sunny 92 33.3 53 11.7 27 27 S 8 13 29.91 1013 10 16 0.00 0.00
1:53 pm 13:53 Sunny 93 33.9 50 10 23 23 SE 7 11 29.88 1012 10 16 0.00 0.00
2:53 pm 14:53 Sunny 93 33.9 49 9.4 22 22 Calm 29.86 1011 10 16 0.00 0.00
3:53 pm 15:53 Sunny 96 35.6 47 8.3 19 19 undefined N/A 29.84 1010 10 16 0.00 0.00
4:53 pm 16:53 Sunny 96 35.6 45 7.2 17 17 WSW 6 9 29.81 1010 10 16 0.00 0.00
5:53 pm 17:53 Sunny 97 36.1 46 7.8 17 17 VRB 5 7 29.79 1009 10 16 0.00 0.00
6:53 pm 18:53 Sunny 96 35.6 47 8.3 19 19 SSE 9 15 29.78 1008 10 16 0.00 0.00
7:53 pm 19:53 Sunny 95 35 47 8.3 19 19 SE 14 22 29.77 1008 10 16 0.00 0.00
8:53 pm 20:53 Sunny 93 33.9 50 10 23 23 ESE 12 19 29.78 1008 10 16 0.00 0.00
9:53 pm 21:53 Clear 90 32.2 50 10 25 25 ESE 9 15 29.79 1009 10 16 0.00 0.00
10:53 pm 22:53 Clear 87 30.6 50 10 28 28 ESE 13 20 29.81 1010 10 16 0.00 0.00
11:53 pm 23:53 Clear 86 30 53 11.7 32 32 SE 13 20 29.82 1010 10 16 0.00 0.00

Powered by AerisWeather